STARLINK-31935 (59876 NORAD) Tracking and Keplerian Element Data

This shows tracking and keplerian element data for the satellite.

Feedback or suggestion? Click here.




ElementValue
Catalog59876
NameSTARLINK-31935
Epoch Orbit295
Epoch Day160.16667824
Epoch Year2024
RAAN327.9793
Inclination43.0018
Eccentricity0.0001753
Argument of Perigee295.5597
Mean Anonmoly193.3723
Mean Motion15.73615996
Decay Rate-0.01685775
L11 59876U 24098U 24160.16667824 -.01685775 00000+0 -13202-1 0 9990
L22 59876 43.0018 327.9793 0001753 295.5597 193.3723 15.73615996 2957



Live tracking and technical data element details for STARLINK-31935 (NORAD 59876). STARLINK-31935 can be tracked NOW for your location showing map with azimuth and elevation plus other details from your city location.







IsCatalogInMostPopularTable: catalog: 59876, numindb: 5
Update: records affected: 1



GetName: 59876 STARLINK-31935

Hit Count: updated at: Tue, 16 Jul 2024 02:15:50 GMT